www.pogodaiklimat.ru

Погода и климат >> Архив погоды >> Россия >> Краснодарский край >> Сочи аэропорт (Адлер)


ПОГОДА в Сочи аэропорту (Адлер)

  • Прогноз погоды в Сочи аэропорту (Адлер)
  • Монитор погоды в Сочи аэропорту (Адлер)
  • Климат города

АРХИВ ПОГОДЫ в Сочи аэропорту (Адлер)

Время (UTC), дата Ветер
(напр.,м/с)
 
Видим.   Явления Облачность Т
(С)
Тd
(С)
f
(%)
Тe
(С)
Тes
(С)
Комфортность P
(гПа)
Po
(гПа)
Тmin
(С)
Tmax
(С)
R
(мм)
R24
(мм)
S
(см)
15 19.04 Ю 4
{10}
10 км 10/10 420 м
[Cb cap]
+13.5 +11.1 85 +12 +12 1015.4 1013.6 +15.7 0.0
18 19.04 ЮВ 5
{11}
4000 м слабый ливневой дождь 10/10 450 м
[Cb cap]
+13.2 +9.3 77 +11 +11 1014.2 1012.4
21 19.04 Ю 4
{12}
4000 м в посл. час ливневой дождь 10/10 300 м
[Cb cap]
+13.3 +11.4 88 +12 +12 1012.9 1011.1
00 20.04 ЮВ 4 4000 м {ливн. осадки} 10/8 360 м
[Cb cap Ac und]
+12.7 +9.8 83 +11 +11 1011.1 1009.3
03 20.04 Ю 3 10 км 10/8 900 м
[Cb cap Ac und]
+12.8 +9.9 83 +11 +11 1009.9 1008.1 +12.5 0.6
06 20.04 В 4 10 км в посл. час ливневой дождь 10/8 900 м
[Cb cap Ac und]
+13.1 +11.4 89 +11 +12 1009.3 1007.5 +12.0
09 20.04 Ю 3
{10}
10 км гроза, пыльная буря {ливн. осадки} 10/10 900 м
[Cb cap]
+11.5 +10.5 94 +10 +10 1009.9 1008.1
12 20.04 СВ 2
{10}
10 км {гроза, ливн. осадки} 9/5 1200 м
[Cb cap Ac trans]
+12.5 +10.6 88 +12 +14 1011.1 1009.3
15 20.04 З 4 20 км 9/3 600 м
[Cb cap Ac trans]
+13.3 +9.2 76 +12 +12 1011.6 1009.8 +14.6 32
18 20.04 З 1 4000 м слабый ливневой дождь 10/9 1500 м
[Cb cap Ac und]
+10.9 +9.9 94 +10 +10 1012.8 1011.0
21 20.04 СВ 2 4000 м {ливн. осадки} 10/5 1500 м
[Cb cap Ac und]
+9.9 +9.3 96 +8 +8 1012.8 1011.0
00 21.04 СВ 2 4000 м {ливн. осадки} 6/0
[Ac trans]
+7.1 +6.8 98 +5 +5 1012.1 1010.2
03 21.04 В 4 20 км 4/0
[Ac trans]
+6.7 +6.3 97 +3 +3 1012.5 1010.6 +6.3 5
06 21.04 В 2 20 км 1/1 600 м
[Cu hum]
+12.9 +8.9 77 +12 +20 1013.3 1011.5
09 21.04 ЮЗ 3 20 км 3/3 600 м
[Cu hum Ac trans]
+14.2 +8.6 69 +13 +23 1014.2 1012.4
12 21.04 ЮВ 4 10 км 9/3 700 м
[Cu hum Ac trans]
+14.5 +8.8 69 +13 +16 1014.3 1012.5
15 21.04 ЮВ 3 10 км 5/3 600 м
[Cu hum Ac trans]
+14.3 +9.0 70 +13 +14 1015.2 1013.4 +15.8
18 21.04 ЮВ 3 4000 м 9/3 1080 м
[Sc Ac trans]
+13.1 +8.8 75 +12 +12 1016.0 1014.2
21 21.04 ЮВ 3 4000 м 9/3 570 м
[Sc Ac trans]
+12.7 +9.5 81 +11 +11 1016.6 1014.8
00 22.04 В 3 4000 м 9/3 600 м
[Sc Ac trans]
+11.0 +9.2 89 +9 +9 1016.6 1014.8
03 22.04 СВ 3 20 км 10/3 1000 м
[Cb cap Ac und]
+10.9 +9.0 88 +9 +9 1016.5 1014.7 +10.8
06 22.04 ЮВ 3 10 км в посл. час ливневой дождь 10/10 450 м
[Cb cap]
+12.5 +10.4 87 +11 +11 1016.9 1015.1 +10.7
09 22.04 ЮВ 4 10 км 10/8 800 м
[Cb cap Ac und]
+13.9 +10.0 77 +12 +13 1017.0 1015.2
12 22.04 Ю 3 10 км 10/6 630 м
[Cb cap Ac und]
+13.8 +9.5 75 +13 +14 1016.8 1015.0
15 22.04 ЮВ 2 10 км 10/3 600 м
[Cu hum Ac und]
+13.5 +8.5 72 +13 +13 1016.1 1014.3 +15.7
18 22.04 В 1 4000 м 10/6 1500 м
[Cb cap Ac und]
+12.4 +10.3 87 +12 +12 1016.7 1014.9
21 22.04 В 2 4000 м 10/3 630 м
[Sc Ac und]
+12.0 +10.4 90 +11 +11 1016.5 1014.7
00 23.04 В 2 4000 м слабый ливневой дождь 10/10 720 м
[Cb cap]
+11.5 +10.3 92 +10 +10 1016.1 1014.3
03 23.04 В 3 20 км {ливн. осадки} 10/10 420 м
[Cb cap]
+10.9 +10.3 96 +9 +9 1015.4 1013.6 +10.9 5
06 23.04 В 3 20 км {ливн. осадки} 9/1 1500 м
[Sc Ac trans]
+13.4 +8.2 71 +12 +15 1015.8 1014.0
09 23.04 ЮВ 4 10 км 8/8 600 м
[Cu hum]
+15.2 +11.9 81 +14 +16 1016.5 1014.7
12 23.04 н/о +15.2 1016.2 1014.4
15 23.04 н/о +6.4 1016.0 1014.2 +16.7
18 23.04 В 1 4000 м ясно +10.9 +10.3 96 +10 +10 1017.0 1015.2
21 23.04 В 3 4000 м 8/0
[Ac trans]
+10.1 +7.8 86 +8 +8 1017.2 1015.4
00 24.04 В 3 4000 м 6/0
[Ac trans]
+9.4 +8.1 92 +7 +7 1017.4 1015.6
03 24.04 штиль 0 20 км 1/0
[Ac trans]
+7.7 +7.0 95 +7 +7 1018.1 1016.3 +7.4
06 24.04 штиль 0 20 км 1/1 1000 м
[Cu hum]
+16.0 +8.1 59 +16 +26 1019.6 1017.8
09 24.04 З 4 20 км 3/3 1000 м
[Cu hum]
+16.4 +8.6 60 +16 +24 1020.2 1018.4
12 24.04 ЮЗ 3 20 км 1/1 1000 м
[Cu hum]
+16.7 +7.7 55 +17 +25 1020.2 1018.4
15 24.04 ЮЗ 2 20 км 1/1 1000 м
[Cu hum]
+16.4 +7.6 56 +17 +18 1019.6 1017.8 +17.8
18 24.04 В 2 4000 м ясно +12.6 +8.6 77 +12 +12 1019.2 1017.4
21 24.04 В 3 4000 м ясно +12.2 +7.7 74 +11 +11 1019.2 1017.4
00 25.04 В 5 4000 м ясно +10.4 +5.6 72 +8 +8 1018.4 1016.6
03 25.04 СВ 3 20 км ясно +10.0 +5.6 74 +8 +8 1018.4 1016.6 +8.0
06 25.04 СЗ 1 20 км 6/0
[Ac trans Ci fib]
+18.8 +7.7 48 +20 +28 1019.0 1017.2
09 25.04 З 3 20 км 3/0
[Ac trans]
+20.6 +5.0 36 +22 +33 комфорт 1019.0 1017.2
12 25.04 З 4 20 км 1/0
[Ac trans]
+20.7 +1.3 28 +21 +28 комфорт 1017.6 1015.8
15 25.04 СЗ 4 20 км ясно +19.0 +2.7 34 +19 +20 1016.6 1014.8 +21.7
18 25.04 СЗ 1 4000 м ясно +13.9 +7.1 64 +14 +14 1016.5 1014.7
21 25.04 СВ 2 4000 м ясно +12.5 +6.2 65 +12 +12 1016.7 1014.9
00 26.04 СВ 4 4000 м ясно +12.1 +5.5 64 +10 +10 1016.7 1014.9
03 26.04 В 6 20 км ясно +12.9 +4.6 57 +11 +11 1017.0 1015.2 +10.4
06 26.04 З 2 20 км ясно +18.9 +6.8 45 +20 +29 1017.4 1015.6
09 26.04 З 2 20 км ясно +21.7 +5.1 34 +22 +39 комфорт 1017.1 1015.3
12 26.04 З 4 20 км ясно +21.8 +6.5 37 +23 +30 комфорт 1015.0 1013.2

 

Местоположение метеостанции Сочи аэропорт (Адлер) (Краснодарский край, Россия): широта 43.43 долгота 39.90 высота над уровнем моря 15 м.

В архиве по умолчанию представлена погода в Сочи аэропорту (Адлер) за последнюю неделю. Архивные данные за месяц целиком и за предыдущие месяцы, начиная с января 2011 года, Вы можете получить, выбрав интересующий диапазон дат из раскрывающегося списка и нажав кнопку "Ввод!".


*Определитесь, кто Вы:
робот инопланетянин человек

Внимание! Время в таблицах - всемирное. Для получения местного времени необходимо прибавить поправку, которая в Сочи аэропорту (Адлер) равна 3 ч.

Смотрите также архив погоды в соседних городах и на ближайших метеорологических станциях:

Погода в Имеретинке (Краснодарский край, Россия) (5 км)
Погода в Сочи (Краснодарский край, Россия) (20 км)
Погода в Кепше (Краснодарский край, Россия) (24 км)
Погода в Красной Поляне (Краснодарский край, Россия) (37 км)
Погода в Горная Карусель 1500 (Краснодарский край, Россия) (40 км)
Погода в Горная Карусель 1000 (Краснодарский край, Россия) (40 км)
Погода в Солох Ауле (Краснодарский край, Россия) (47 км)
Погода в Кичмае (Краснодарский край, Россия) (54 км)
Погода в Гузерипле (Адыгея, Россия) (66 км)
Погода в Лазаревском (Краснодарский край, Россия) (70 км)

Пояснения к столбцам:

Ветер - указаны скорость ветра в м/с - средняя за 10 мин, порывы в срок и между сроками (в фигурных скобках) и направление, откуда дует ветер: С - северный, СВ - северо-восточный, В - восточный, ЮВ - юго-восточный, Ю - южный, ЮЗ - юго-западный, З - западный, СЗ - северо-западный.
Видимость - горизонтальная дальность видимости в метрах или километрах. При видимости от 1 до 10 км при отсутствии осадков обычно наблюдается дымка, при ухудшении видимости до 1 км и менее - туман. В сухую погоду видимость может ухудшаться дымом, пылью или мглою.
Явления - указаны атмосферные явления, наблюдавшиеся в срок или в последний час перед сроком; фигурными скобками обозначены явления, наблюдавшиеся между сроками (за 1-3 часа до срока); квадратными скобками обозначены град или гололедные отложения с указанием их диаметра в мм.
Облачность - указаны через наклонную черту общая и нижняя облачность в баллах и высота нижней границы облаков в метрах; квадратными скобками обозначены формы облаков: Ci - перистые, Cs - перисто-слоистые, Cc - перисто-кучевые, Ac - высококучевые, As - высокослоистые, Sc - слоисто-кучевые, Ns - слоисто-дождевые, Cu - кучевые, Cb - кучево-дождевые. Подробнее классификацию облаков см. в Атласе облаков (PDF).
T - Температура воздуха - температура, измеренная на высоте 2 м над землей.
Td - Температура точки росы - температура, при понижении до которой содержащийся в воздухе водяной пар достигнет насыщения.
f - Относительная влажность воздуха - влажноcть воздуха, измеренная на высоте 2 м над землей.
Te - Эффективная температура - температура, которую ощущает одетый по сезону человек в тени. Характеристика душности погоды. При расчете учитывается влияние влажности воздуха и скорости ветра на теплоощущения человека.
Tes - Эффективная температура на солнце - температура, которую ощущает человек, с поправкой на солнечный нагрев. Характеристика знойности погоды. Зависит от высоты солнца над горизонтом, облачности и скорости ветра. Ночью, в пасмурную погоду, а также при ветре 12 м/с и более поправка равна нулю.
P - Атмосферное давление - приведенное к уровню моря атмосферное давление.
Po - Атмосферное давление - измеренное на уровне метеостанции атмосферное давление.
Tmin - Минимальная температура - минимум температуры воздуха на высоте 2 м над землей.
Tmax - Максимальная температура - максимум температуры воздуха на высоте 2 м над землей.
R - Количество осадков - Количество выпавших осадков за период времени, мм. При наведении курсора мыши на число - период времени, за который выпало указанное количество осадков.
R24 - Количество осадков - Количество выпавших осадков за 24 часа, мм.
S - Снежный покров - Высота снежного покрова, см. При наведении курсора мыши на число - состояние снежного покрова и степень покрытия местности в баллах.